TimeEST,TemperatureF,Dew PointF,Humidity,Sea Level PressureIn,VisibilityMPH,Wind Direction,Wind SpeedMPH,Gust SpeedMPH,PrecipitationIn,Events,Conditions,WindDirDegrees,DateUTC
12:18 AM,14.0,10.4,86,30.18,5.0,Calm,Calm,-,0.00,Snow,Light Snow,0,2013-01-03 05:18:00
12:53 AM,12.9,9.0,84,30.23,3.0,Calm,Calm,-,0.00,Snow,Light Snow,0,2013-01-03 05:53:00
1:53 AM,12.9,9.0,84,30.21,5.0,Calm,Calm,-,0.00,Snow,Light Snow,0,2013-01-03 06:53:00
2:53 AM,12.9,9.0,84,30.21,8.0,ESE,3.5,-,0.00,,Overcast,120,2013-01-03 07:53:00
3:53 AM,14.0,10.0,84,30.19,7.0,Calm,Calm,-,0.00,Snow,Light Snow,0,2013-01-03 08:53:00
4:53 AM,14.0,10.0,84,30.17,7.0,Calm,Calm,-,0.00,Snow,Light Snow,0,2013-01-03 09:53:00
5:53 AM,14.0,10.9,88,30.18,6.0,Calm,Calm,-,0.00,Snow,Light Snow,0,2013-01-03 10:53:00
6:53 AM,17.1,14.0,88,30.17,9.0,SW,4.6,-,0.00,,Overcast,230,2013-01-03 11:53:00
7:29 AM,19.4,15.8,86,30.10,10.0,South,6.9,-,N/A,,Overcast,180,2013-01-03 12:29:00
7:53 AM,21.0,16.0,81,30.14,8.0,South,8.1,-,0.00,,Overcast,190,2013-01-03 12:53:00
8:53 AM,21.9,17.1,82,30.15,3.0,SSW,9.2,-,0.00,Snow,Light Snow,210,2013-01-03 13:53:00
9:03 AM,21.2,17.6,86,30.10,2.5,SSW,9.2,-,0.00,Snow,Light Snow,210,2013-01-03 14:03:00
9:18 AM,21.2,17.6,86,30.09,1.8,SSW,10.4,-,0.00,Snow,Light Snow,210,2013-01-03 14:18:00
9:31 AM,21.2,17.6,86,30.08,2.0,SSW,8.1,-,0.00,Snow,Light Snow,200,2013-01-03 14:31:00
9:38 AM,21.2,17.6,86,30.08,2.5,SSW,9.2,-,0.00,Snow,Light Snow,200,2013-01-03 14:38:00
9:45 AM,21.2,17.6,86,30.08,4.0,South,8.1,-,0.00,Snow,Light Snow,190,2013-01-03 14:45:00
9:53 AM,21.9,17.1,82,30.14,3.0,South,9.2,-,0.00,Snow,Light Snow,180,2013-01-03 14:53:00
10:53 AM,23.0,16.0,74,30.13,10.0,SSW,8.1,-,0.00,,Overcast,200,2013-01-03 15:53:00
11:39 AM,24.8,17.6,74,30.05,10.0,SSW,8.1,-,N/A,,Overcast,200,2013-01-03 16:39:00
11:46 AM,24.8,17.6,74,30.05,10.0,SW,11.5,-,N/A,,Overcast,220,2013-01-03 16:46:00
11:53 AM,25.0,16.0,69,30.09,10.0,SSW,13.8,-,N/A,,Overcast,210,2013-01-03 16:53:00
12:00 PM,24.8,17.6,74,30.04,10.0,SW,11.5,-,N/A,,Overcast,220,2013-01-03 17:00:00
12:10 PM,24.8,17.6,74,30.03,10.0,SSW,12.7,-,N/A,,Overcast,210,2013-01-03 17:10:00
12:21 PM,24.8,17.6,74,30.03,9.0,SSW,9.2,18.4,N/A,,Overcast,210,2013-01-03 17:21:00
12:53 PM,26.1,17.1,69,30.05,10.0,SSW,10.4,-,N/A,,Overcast,210,2013-01-03 17:53:00
1:53 PM,27.0,17.1,66,30.02,10.0,SSW,12.7,-,N/A,,Overcast,210,2013-01-03 18:53:00
2:53 PM,28.0,19.0,69,30.01,10.0,SSW,12.7,-,N/A,,Overcast,210,2013-01-03 19:53:00
3:53 PM,28.9,19.0,67,30.00,10.0,SW,13.8,-,N/A,,Overcast,230,2013-01-03 20:53:00
4:53 PM,28.0,19.0,69,30.01,10.0,WSW,12.7,-,N/A,,Overcast,240,2013-01-03 21:53:00
5:30 PM,28.4,19.4,69,29.97,10.0,WSW,13.8,-,N/A,,Overcast,240,2013-01-03 22:30:00
5:53 PM,28.0,19.9,72,30.02,10.0,SW,13.8,-,N/A,,Overcast,230,2013-01-03 22:53:00
6:34 PM,28.4,19.4,69,29.97,10.0,WSW,16.1,21.9,N/A,,Overcast,240,2013-01-03 23:34:00
6:53 PM,28.0,19.9,72,30.02,10.0,SW,12.7,21.9,N/A,,Overcast,220,2013-01-03 23:53:00
7:06 PM,28.4,21.2,74,29.98,10.0,SW,11.5,-,N/A,,Overcast,220,2013-01-04 00:06:00
7:53 PM,28.0,21.0,75,30.03,10.0,SW,12.7,-,0.00,,Overcast,230,2013-01-04 00:53:00
8:49 PM,28.4,23.0,80,29.98,2.5,SW,11.5,-,0.00,Snow,Light Snow,220,2013-01-04 01:49:00
8:53 PM,28.0,23.0,81,30.03,3.0,SW,9.2,-,0.00,Snow,Light Snow,220,2013-01-04 01:53:00
9:10 PM,28.4,23.0,80,29.98,2.0,SW,9.2,-,0.00,Snow,Light Snow,220,2013-01-04 02:10:00
9:15 PM,28.4,23.0,80,29.98,1.8,SW,9.2,-,0.00,Snow,Light Snow,220,2013-01-04 02:15:00
9:22 PM,28.4,24.8,86,29.98,1.8,SW,9.2,-,0.00,Snow,Light Snow,230,2013-01-04 02:22:00
9:42 PM,28.4,24.8,86,29.98,2.0,SW,9.2,-,0.00,Snow,Light Snow,220,2013-01-04 02:42:00
9:51 PM,28.4,24.8,86,29.98,3.0,SSW,9.2,-,0.00,Snow,Light Snow,210,2013-01-04 02:51:00
9:53 PM,28.0,24.1,85,30.03,3.0,SSW,8.1,-,0.00,Snow,Light Snow,210,2013-01-04 02:53:00
10:06 PM,28.4,24.8,86,29.98,6.0,SSW,9.2,-,0.00,,Overcast,210,2013-01-04 03:06:00
10:53 PM,28.9,23.0,78,30.03,5.0,WSW,10.4,-,0.00,Snow,Light Snow,240,2013-01-04 03:53:00
11:53 PM,28.9,21.9,75,30.02,10.0,WSW,16.1,25.3,0.00,,Overcast,250,2013-01-04 04:53:00